Regional Weather Roundup
Issued by NWS Jackson, KY

Home | Current Version | Previous Version | Text Only | Print | Product List | Glossary On
Versions: 1 2 3 4 5 6 7 8 9 10 11 12 13 14 15 16 17 18 19 20 21 22 23 24 25 26 27 28 29 30 31 32 33 34 35 36 37 38 39 40 41 42 43 44 45 46 47 48 49 50
000
ASUS43 KJKL 252110
RWRJKL

EAST KENTUCKY HOURLY WEATHER ROUNDUP
NATIONAL WEATHER SERVICE JACKSON KY
500 PM EDT TUE JUL 25 2017

NOTE: "FAIR" INDICATES FEW OR NO CLOUDS BELOW 12,000 FEET WITH
NO SIGNIFICANT WEATHER AND/OR OBSTRUCTIONS TO VISIBILITY.

* THESE REPORTS ARE NOT UNDER NWS QUALITY CONTROL AND MAY NOT
  REPORT WEATHER SUCH AS PRECIPITATION AND FOG.

KYZ079-080-083-085-087-088-110-112-115-119-120-252200
...EASTERN KENTUCKY...

CITY           SKY/WX    TMP DP  RH WIND       PRES   REMARKS
JACKSON        MOSUNNY   82  66  58 CALM      30.16F
LONDON         MOSUNNY   84  61  45 VRB5      30.13F
SOMERSET*      PTSUNNY   86  63  45 N5        30.13F
MONTICELLO*    SUNNY     85  70  60 N20       30.14F
WILLIAMSBURG*  PTCLDY    86  66  51 NW6       30.12F
MIDDLESBORO*   SUNNY     87  70  57 N8        30.12S HX  92
PIKE CO APT*     N/A     80  65  60 N7        30.17F
BIG SANDY APT* CLEAR     81  65  57 N5        30.17F
MOREHEAD APT*  PTCLDY    81  61  50 VRB3      30.19R
ASHLAND*       SUNNY     81  64  57 NE3       30.16S
$$

KYZ035-036-041-042-044-050-067-078-099-252200
...CENTRAL KENTUCKY...

CITY           SKY/WX    TMP DP  RH WIND       PRES   REMARKS
MT STERLING*   SUNNY     82  63  51 N6        30.18S
FLEMING/MASON* SUNNY     80  60  50 NE8       30.19S
DANVILLE*      MOSUNNY   82  64  54 E6        30.15S
LEXINGTON      MOSUNNY   84  63  49 NE9       30.15F
FRANKFORT      PTSUNNY   83  63  50 E8        30.14S
LOUISVILLE     MOSUNNY   87  64  46 NE6       30.12S
LEBANON*         N/A     86  64  48 CALM      30.13F
GLASGOW*       SUNNY     91  66  43 E5        30.10S HX  94
BOWLING GREEN  MOSUNNY   92  72  51 E7        30.08F HX  99
$$

KYZ091>093-OHZ055-061-077-WVZ005-015-034-035-042-252200
...SOUTHERN OHIO/WEST VIRGINIA...

CITY           SKY/WX    TMP DP  RH WIND       PRES   REMARKS
COVINGTON      SUNNY     81  61  50 E9        30.18R
COLUMBUS       PTSUNNY   76  60  57 NE5       30.20S
DAYTON         MOSUNNY   76  59  55 NE9       30.20F
WILMINGTON     MOSUNNY   74  63  68 NE9       30.21R
HUNTINGTON     SUNNY     80  59  48 NE8       30.16F
CHARLESTON     MOSUNNY   82  56  40 CALM      30.17F
PINEVILLE*     SUNNY     83  60  45 MISG      30.22F
BECKLEY        SUNNY     78  55  44 NW8       30.21F
BLUEFIELD      MOSUNNY   77  56  48 W6        30.23S
LOGAN CO APT*    N/A     79  61  53 CALM      30.18F
$$

VAZ002-007-008-TNZ017-027-036-066-071-252200
...SOUTHWEST VIRGINIA/EAST TENNESSEE...

CITY           SKY/WX    TMP DP  RH WIND       PRES   REMARKS
WISE*          MOSUNNY   81  63  54 NE8       30.23S
JONESVILLE*      N/A     90  68  48 N6        30.13F HX  93
ABINGDON*      PTSUNNY   85  64  49 NE6       30.17F
BRISTOL        MOSUNNY   89  65  44 NE6       30.12F HX  91
MORRISTOWN*    CLEAR     90  66  45 NW12      30.09F HX  92
SEVIERVILLE*   PTCLDY    93  64  38 W8        30.07F HX  95
KNOXVILLE      LGT RAIN  83  69  62 NW12      30.08S
LAFOLLETTE*    PTCLDY    90  66  45 VRB5      30.13F HX  92
OAK RIDGE      CLOUDY    90  69  50 S5        30.10S HX  94
CROSSVILLE     SUNNY     87  65  47 N9        30.16F
NASHVILLE      CLOUDY    88  69  53 SW9       30.08S HX  92
$$

...KEY TO REMARKS...
VSB - VISIBILITY IN MILES
WCI - WIND CHILL INDEX
HX  - HEAT INDEX

$$



USA.gov is the U.S. government's official web portal to all federal, state and local government web resources and services.